Radiation Dose at Monitoring Post of Fukushima Daini Nuclear Power Station
Date,Time,MP-1(microSv/h),MP-2(microSv/h),MP-3(microSv/h),MP-4(microSv/h),MP-5(microSv/h),MP-6(microSv/h),MP-7(microSv/h),Wind Direction,Wind Velocity(m/s),Rain
2015/01/17,00:00,0.586,0.375,0.622,0.562,0.561,0.256,0.231,south-southwest,0.9,Yes
2015/01/17,00:10,0.587,0.376,0.622,0.563,0.559,0.257,0.230,south-southwest,3.2,Yes
2015/01/17,00:20,0.587,0.376,0.622,0.564,0.561,0.257,0.231,south-southwest,2.9,Yes
2015/01/17,00:30,0.586,0.378,0.619,0.562,0.560,0.259,0.232,south-southwest,2.2,Yes
2015/01/17,00:40,0.586,0.379,0.619,0.564,0.559,0.259,0.230,south-southwest,1.3,Yes
2015/01/17,00:50,0.585,0.377,0.620,0.561,0.558,0.258,0.231,southwest,2.2,Yes
2015/01/17,01:00,0.585,0.376,0.619,0.562,0.559,0.259,0.231,west-southwest,2.5,Yes
2015/01/17,01:10,0.586,0.376,0.617,0.561,0.559,0.257,0.229,west,2.2,Yes
2015/01/17,01:20,0.584,0.378,0.618,0.561,0.559,0.256,0.229,west-northwest,2.7,Yes
2015/01/17,01:30,0.583,0.376,0.617,0.561,0.559,0.257,0.229,northwest,2.7,Yes
2015/01/17,01:40,0.584,0.376,0.617,0.559,0.557,0.256,0.229,northwest,2.5,Yes
2015/01/17,01:50,0.585,0.377,0.618,0.560,0.558,0.256,0.230,north-northwest,4.5,Yes
2015/01/17,02:00,0.582,0.376,0.617,0.558,0.557,0.256,0.228,northwest,4.3,Yes
2015/01/17,02:10,0.584,0.375,0.616,0.558,0.558,0.257,0.230,west,3.7,Yes
2015/01/17,02:20,0.580,0.376,0.615,0.556,0.557,0.257,0.228,west-northwest,2.3,Yes
2015/01/17,02:30,0.581,0.375,0.613,0.556,0.557,0.259,0.229,west-northwest,1.7,Yes
2015/01/17,02:40,0.581,0.375,0.614,0.555,0.559,0.257,0.229,west-northwest,1.8,Yes
2015/01/17,02:50,0.580,0.376,0.613,0.555,0.557,0.256,0.229,west-northwest,1.4,No
2015/01/17,03:00,0.580,0.374,0.614,0.555,0.556,0.256,0.228,west-northwest,2.9,No
2015/01/17,03:10,0.579,0.373,0.612,0.554,0.556,0.255,0.226,west-northwest,3.5,No
2015/01/17,03:20,0.580,0.373,0.611,0.557,0.556,0.255,0.226,west,0.8,No
2015/01/17,03:30,0.577,0.373,0.610,0.556,0.557,0.254,0.226,west-southwest,1.0,No
2015/01/17,03:40,0.580,0.371,0.610,0.554,0.556,0.253,0.224,west,0.9,No
2015/01/17,03:50,0.579,0.373,0.610,0.554,0.555,0.254,0.224,west,1.2,No
2015/01/17,04:00,0.577,0.372,0.610,0.554,0.556,0.253,0.224,west-northwest,1.3,No
2015/01/17,04:10,0.578,0.372,0.609,0.554,0.554,0.254,0.223,northwest,2.9,No
2015/01/17,04:20,0.577,0.371,0.611,0.555,0.554,0.252,0.225,west-northwest,3.0,No
2015/01/17,04:30,0.577,0.371,0.611,0.554,0.555,0.253,0.223,west-northwest,2.9,No
2015/01/17,04:40,0.579,0.372,0.611,0.554,0.555,0.252,0.224,west-northwest,2.4,No
2015/01/17,04:50,0.579,0.371,0.610,0.555,0.553,0.252,0.223,west-northwest,1.7,No
2015/01/17,05:00,0.576,0.370,0.611,0.553,0.556,0.252,0.225,northwest,1.0,No
2015/01/17,05:10,0.579,0.371,0.610,0.553,0.555,0.252,0.224,west-northwest,1.3,No
2015/01/17,05:20,0.578,0.370,0.612,0.555,0.554,0.252,0.224,west-northwest,1.3,No
2015/01/17,05:30,0.579,0.371,0.612,0.554,0.555,0.251,0.223,west-northwest,1.4,No
2015/01/17,05:40,0.578,0.370,0.612,0.553,0.556,0.252,0.223,northwest,1.0,No
2015/01/17,05:50,0.577,0.371,0.609,0.555,0.555,0.253,0.224,west-northwest,1.6,No
2015/01/17,06:00,0.578,0.371,0.612,0.555,0.554,0.251,0.225,west,1.5,No
2015/01/17,06:10,0.578,0.372,0.611,0.555,0.556,0.251,0.224,west-southwest,2.9,No
2015/01/17,06:20,0.577,0.371,0.611,0.555,0.555,0.252,0.223,southwest,4.5,No
2015/01/17,06:30,0.578,0.371,0.612,0.554,0.555,0.252,0.223,southwest,4.2,No
2015/01/17,06:40,0.578,0.371,0.611,0.553,0.555,0.251,0.225,southwest,2.2,No
2015/01/17,06:50,0.578,0.371,0.612,0.555,0.556,0.253,0.225,south-southwest,1.6,No
2015/01/17,07:00,0.579,0.371,0.612,0.556,0.555,0.253,0.225,south-southwest,2.5,No
2015/01/17,07:10,0.577,0.372,0.612,0.556,0.556,0.253,0.225,southwest,3.9,No
2015/01/17,07:20,0.577,0.371,0.613,0.555,0.556,0.255,0.226,southwest,2.3,No
2015/01/17,07:30,0.578,0.371,0.612,0.556,0.556,0.253,0.225,west,3.3,No
2015/01/17,07:40,0.578,0.373,0.612,0.555,0.555,0.252,0.224,west,6.9,No
2015/01/17,07:50,0.578,0.373,0.612,0.555,0.555,0.252,0.224,west-northwest,7.6,No
2015/01/17,08:00,0.579,0.372,0.612,0.555,0.554,0.253,0.225,west,7.5,No
2015/01/17,08:10,0.579,0.372,0.612,0.555,0.557,0.254,0.223,west,6.9,No
2015/01/17,08:20,0.580,0.371,0.613,0.556,0.557,0.253,0.224,west-northwest,7.9,No
2015/01/17,08:30,0.581,0.371,0.613,0.558,0.556,0.252,0.224,west,9.7,No
2015/01/17,08:40,0.579,0.373,0.612,0.557,0.556,0.252,0.226,west-northwest,7.8,No
2015/01/17,08:50,0.581,0.373,0.615,0.555,0.556,0.253,0.224,west-northwest,9.5,No
2015/01/17,09:00,0.581,0.373,0.615,0.559,0.556,0.253,0.224,west-northwest,7.7,No
2015/01/17,09:10,0.581,0.373,0.613,0.559,0.556,0.253,0.224,west-northwest,10.0,No
2015/01/17,09:20,0.581,0.373,0.615,0.558,0.556,0.253,0.224,west-northwest,11.6,No
2015/01/17,09:30,0.581,0.374,0.617,0.558,0.555,0.254,0.223,west-northwest,12.0,No
2015/01/17,09:40,0.582,0.374,0.614,0.560,0.557,0.253,0.224,west-northwest,11.5,No
2015/01/17,09:50,0.582,0.373,0.616,0.559,0.557,0.254,0.225,west-northwest,13.5,No
2015/01/17,10:00,0.582,0.375,0.616,0.560,0.557,0.254,0.226,west-northwest,11.7,No
2015/01/17,10:10,0.582,0.374,0.616,0.559,0.558,0.255,0.225,west,12.4,No
2015/01/17,10:20,0.583,0.373,0.616,0.560,0.556,0.255,0.226,west,12.8,No
2015/01/17,10:30,0.582,0.374,0.618,0.561,0.558,0.253,0.226,west,8.7,No
2015/01/17,10:40,0.584,0.375,0.617,0.560,0.559,0.255,0.226,west-northwest,7.8,No
2015/01/17,10:50,0.584,0.375,0.618,0.560,0.556,0.256,0.228,west-northwest,7.0,No
2015/01/17,11:00,0.583,0.375,0.617,0.559,0.559,0.254,0.226,west-northwest,8.0,No
2015/01/17,11:10,0.583,0.373,0.618,0.560,0.559,0.254,0.226,west-northwest,9.5,No
2015/01/17,11:20,0.585,0.375,0.619,0.561,0.560,0.255,0.227,west-northwest,8.4,No
2015/01/17,11:30,0.583,0.375,0.616,0.562,0.559,0.255,0.226,west-northwest,13.4,No
2015/01/17,11:40,0.585,0.374,0.618,0.562,0.560,0.255,0.227,west-northwest,11.7,No
2015/01/17,11:50,0.585,0.374,0.617,0.562,0.558,0.255,0.228,west-northwest,9.6,No
2015/01/17,12:00,0.587,0.375,0.618,0.561,0.560,0.255,0.227,west,10.4,No
2015/01/17,12:10,0.586,0.375,0.617,0.562,0.558,0.256,0.227,west,9.7,No
2015/01/17,12:20,0.585,0.375,0.619,0.562,0.559,0.256,0.227,west-northwest,13.4,No
2015/01/17,12:30,0.584,0.374,0.618,0.563,0.560,0.255,0.227,west-northwest,12.3,No
2015/01/17,12:40,0.585,0.375,0.618,0.560,0.560,0.256,0.228,west-northwest,11.0,No
2015/01/17,12:50,0.586,0.375,0.620,0.564,0.559,0.255,0.227,west-northwest,13.4,No
2015/01/17,13:00,0.586,0.375,0.620,0.561,0.560,0.255,0.227,west-northwest,9.5,No
2015/01/17,13:10,0.587,0.376,0.619,0.563,0.560,0.255,0.227,west-northwest,8.3,No
2015/01/17,13:20,0.586,0.375,0.620,0.561,0.560,0.256,0.228,west-northwest,9.0,No
2015/01/17,13:30,0.585,0.375,0.619,0.563,0.559,0.256,0.228,west,8.7,No
2015/01/17,13:40,0.587,0.375,0.618,0.564,0.560,0.257,0.227,west-northwest,8.8,No
2015/01/17,13:50,0.588,0.377,0.620,0.564,0.559,0.257,0.229,west-northwest,11.6,No
2015/01/17,14:00,0.587,0.375,0.620,0.563,0.559,0.258,0.227,west-northwest,11.0,No
2015/01/17,14:10,0.586,0.376,0.622,0.562,0.560,0.256,0.228,west-northwest,11.5,No
2015/01/17,14:20,0.586,0.375,0.620,0.563,0.558,0.256,0.229,west-northwest,9.7,No
2015/01/17,14:30,0.587,0.376,0.621,0.563,0.559,0.257,0.229,west-northwest,11.6,No
2015/01/17,14:40,0.587,0.376,0.620,0.564,0.560,0.256,0.229,west,11.3,No
2015/01/17,14:50,0.589,0.375,0.620,0.563,0.559,0.257,0.230,west,11.9,No
2015/01/17,15:00,0.586,0.376,0.620,0.563,0.560,0.256,0.228,west,4.6,No
2015/01/17,15:10,0.585,0.376,0.620,0.563,0.560,0.255,0.229,west,4.2,No
2015/01/17,15:20,0.586,0.375,0.620,0.562,0.558,0.257,0.227,west,6.5,No
2015/01/17,15:30,0.587,0.375,0.621,0.563,0.559,0.256,0.229,northwest,3.9,No
2015/01/17,15:40,0.588,0.375,0.619,0.563,0.559,0.256,0.228,west,2.0,No
2015/01/17,15:50,0.588,0.376,0.622,0.563,0.559,0.256,0.228,north-northwest,3.2,No
2015/01/17,16:00,0.587,0.375,0.618,0.560,0.558,0.256,0.229,north,2.6,No
2015/01/17,16:10,0.586,0.374,0.620,0.561,0.559,0.255,0.229,north-northwest,3.1,No
2015/01/17,16:20,0.587,0.374,0.620,0.563,0.559,0.255,0.227,north-northwest,2.1,No
2015/01/17,16:30,0.585,0.373,0.620,0.562,0.558,0.257,0.228,west-northwest,4.8,No
2015/01/17,16:40,0.585,0.374,0.619,0.563,0.559,0.257,0.227,west-northwest,5.2,No
2015/01/17,16:50,0.587,0.374,0.620,0.561,0.560,0.257,0.228,northwest,3.8,No
2015/01/17,17:00,0.587,0.376,0.621,0.561,0.559,0.255,0.228,north-northwest,3.1,No
2015/01/17,17:10,0.588,0.375,0.619,0.562,0.560,0.258,0.228,northwest,6.2,No
2015/01/17,17:20,0.587,0.375,0.619,0.562,0.557,0.256,0.227,northwest,5.3,No
2015/01/17,17:30,0.586,0.374,0.620,0.562,0.558,0.256,0.228,north-northwest,6.6,No
2015/01/17,17:40,0.587,0.374,0.619,0.563,0.560,0.256,0.228,north-northwest,5.6,No
2015/01/17,17:50,0.586,0.374,0.620,0.562,0.559,0.256,0.229,west-northwest,4.5,No
2015/01/17,18:00,0.587,0.375,0.620,0.562,0.558,0.256,0.227,northwest,5.7,No
2015/01/17,18:10,0.586,0.376,0.621,0.563,0.558,0.257,0.229,west-northwest,6.1,No
2015/01/17,18:20,0.586,0.375,0.620,0.562,0.560,0.257,0.228,northwest,8.2,No
2015/01/17,18:30,0.587,0.373,0.619,0.562,0.560,0.256,0.229,north-northwest,6.7,No
2015/01/17,18:40,0.584,0.374,0.620,0.562,0.558,0.256,0.229,north-northwest,5.7,No
2015/01/17,18:50,0.585,0.374,0.620,0.563,0.558,0.257,0.229,north-northwest,4.7,No
2015/01/17,19:00,0.588,0.373,0.622,0.563,0.558,0.257,0.228,north,5.6,No
2015/01/17,19:10,0.586,0.373,0.621,0.563,0.557,0.257,0.229,north,5.6,No
2015/01/17,19:20,0.586,0.374,0.621,0.562,0.560,0.258,0.227,north-northwest,3.7,No
2015/01/17,19:30,0.586,0.374,0.621,0.563,0.558,0.257,0.229,north-northwest,5.2,No
2015/01/17,19:40,0.587,0.373,0.621,0.565,0.558,0.256,0.228,northwest,2.2,No
2015/01/17,19:50,0.586,0.374,0.622,0.563,0.559,0.257,0.229,north,5.5,No
2015/01/17,20:00,0.587,0.374,0.622,0.563,0.559,0.256,0.229,north-northwest,3.4,No
2015/01/17,20:10,0.586,0.375,0.619,0.564,0.558,0.257,0.228,northwest,5.0,No
2015/01/17,20:20,0.586,0.376,0.620,0.562,0.558,0.257,0.229,north-northwest,4.3,No
2015/01/17,20:30,0.587,0.375,0.620,0.561,0.556,0.256,0.227,north,5.8,No
2015/01/17,20:40,0.587,0.374,0.621,0.564,0.560,0.256,0.229,north-northwest,5.3,No
2015/01/17,20:50,0.586,0.373,0.622,0.562,0.558,0.257,0.229,northwest,5.3,No
2015/01/17,21:00,0.587,0.374,0.621,0.564,0.559,0.256,0.229,north-northwest,3.4,No
2015/01/17,21:10,0.585,0.375,0.623,0.565,0.558,0.256,0.229,north,4.8,No
2015/01/17,21:20,0.587,0.374,0.621,0.562,0.558,0.257,0.229,north,5.3,No
2015/01/17,21:30,0.588,0.375,0.623,0.565,0.557,0.257,0.229,north,4.4,No
2015/01/17,21:40,0.588,0.375,0.622,0.564,0.559,0.257,0.228,north-northwest,7.8,Yes
2015/01/17,21:50,0.585,0.375,0.622,0.563,0.559,0.258,0.230,northwest,8.7,Yes
2015/01/17,22:00,0.587,0.377,0.621,0.563,0.559,0.259,0.232,northwest,9.1,Yes
2015/01/17,22:10,0.585,0.377,0.620,0.563,0.560,0.261,0.233,west-northwest,8.7,Yes
2015/01/17,22:20,0.587,0.378,0.621,0.565,0.559,0.261,0.233,west-northwest,9.2,Yes
2015/01/17,22:30,0.588,0.378,0.622,0.563,0.559,0.261,0.233,west-northwest,5.2,Yes
2015/01/17,22:40,0.586,0.375,0.620,0.564,0.560,0.261,0.233,west,4.6,No
2015/01/17,22:50,0.583,0.374,0.617,0.561,0.558,0.259,0.231,west,6.7,Yes
2015/01/17,23:00,0.584,0.375,0.617,0.561,0.556,0.260,0.229,west-northwest,6.5,No
2015/01/17,23:10,0.582,0.374,0.619,0.561,0.556,0.258,0.230,west,7.6,No
2015/01/17,23:20,0.582,0.374,0.617,0.561,0.556,0.257,0.229,west,8.7,Yes
2015/01/17,23:30,0.582,0.372,0.617,0.560,0.556,0.256,0.229,west,8.3,No
2015/01/17,23:40,0.581,0.372,0.617,0.559,0.554,0.257,0.229,west-northwest,7.8,No
2015/01/17,23:50,0.582,0.371,0.618,0.558,0.555,0.256,0.229,west-northwest,7.2,Yes
